{"data":{"norad_id":64464,"epoch":"2026-05-25T02:35:35.541600Z","epoch_age_seconds":65020,"freshness":"FRESH","line1":"1 64464U 25130AC  26145.10805025  .00029308  00000+0  87492-3 0  9998","line2":"2 64464  53.1597  92.8262 0000967  96.7021 263.4091 15.34408398 52414","mean_motion":15.34408398,"eccentricity":9.67e-5,"inclination_deg":53.1597,"raan_deg":92.8262,"arg_perigee_deg":96.7021,"mean_anomaly_deg":263.4091,"bstar":0.00087492,"rev_number":5241,"period_min":93.847244441372,"perigee_km":462.01677285761,"apogee_km":463.3397865327,"semimajor_km":6840.8152796952,"source":"CELESTRAK","updated_at":"2026-05-25T13:38:20.454647Z"}}